Temperature
12 12 12 12 12 12 12 12 12 12 12 12 12 12 12 12 12 12 12 12 12 12 12 12 12 12 12 12 12 12 12 12 12 12 12 12 12 11 11 11 11 11 11
12 12 12 12 12 12 12 12 12 12 12 12 12 12 12 12 12 12 12 12 12 12 12 12 12 11 11 11 11 11 11 11 11 11 11 11 11 11 11 11 11 11 10
12 12 12 12 12 12 12 11 11 11 11 11 11 11 11 11 11 11 11 11 11 11 11 11 11 11 11 11 11 11 11 11 11 11 11 11 11 11 11 10 10 10 10
11 11 11 11 11 11 11 11 11 11 11 11 11 11 11 11 11 11 11 11 11 11 11 11 11 11 11 11 11 11 11 11 11 11 10 10 10 10 10 10 10 10 10
11 11 11 11 11 11 11 11 11 11 11 11 10 10 10 10 10 10 11 11 11 11 11 11 11 11 11 10 10 10 10 10 10 10 10 10 10 10 10 10 10 10 9
11 11 11 11 11 11 11 10 10 10 10 10 10 10 10 10 10 10 10 10 10 10 10 10 10 11 10 10 10 10 10 10 10 10 10 10 10 10 9 9 9 9 9
10 10 10 10 10 10 11 10 10 10 10 10 9 9 9 9 9 10 10 10 10 10 10 10 10 10 10 10 10 10 9 9 9 9 9 9 9 9 9 9 9 8 8
10 10 10 10 10 10 10 10 10 10 9 9 9 9 8 8 9 9 9 9 10 10 10 10 10 10 10 10 9 9 9 9 9 9 9 9 9 9 9 8 8 8 8
10 10 10 10 10 10 10 10 10 10 9 9 9 9 9 9 8 8 8 9 9 9 9 9 9 9 9 9 9 9 9 9 9 8 8 8 8 8 8 8 8 8 8
9 10 10 9 9 9 9 9 9 9 9 9 9 9 9 9 8 8 8 8 8 9 9 9 9 9 9 9 9 8 8 8 8 8 8 8 8 8 7 7 7 7 7
9 9 9 9 9 9 9 9 9 9 9 9 9 8 8 8 9 8 8 8 8 8 8 8 8 8 8 8 8 8 8 8 8 8 7 7 7 7 7 7 7 7 7
8 8 8 9 9 9 9 9 9 9 8 8 8 8 8 8 8 8 8 8 8 8 8 8 8 8 8 8 8 7 7 7 7 7 7 7 7 7 7 7 7 7 7
8 8 8 8 8 8 8 8 8 8 8 8 8 8 8 8 8 8 8 7 7 7 7 7 7 7 7 7 7 7 7 7 7 7 7 7 7 7 7 7 6 6 6
8 8 7 8 8 8 8 8 8 8 8 8 7 7 7 7 7 7 7 7 7 6 7 7 7 7 7 7 7 7 6 6 6 6 6 6 6 6 6 6 6 6 6
7 7 7 7 7 7 7 7 7 7 7 7 7 7 7 7 7 7 7 7 7 6 6 7 7 7 7 6 6 6 6 6 6 6 6 6 6 6 6 6 6 6 6
7 7 7 7 7 7 7 7 7 7 7 7 6 6 6 6 6 6 6 6 6 6 6 6 6 6 6 6 6 6 6 6 5 5 5 5 5 5 5 5 5 5 5
6 6 6 6 6 6 6 6 6 6 6 6 6 6 6 6 6 6 6 6 6 6 6 6 6 5 5 5 5 5 5 5 5 5 5 5 5 5 5 5 5 5 5
6 6 6 6 6 6 6 6 6 6 6 6 6 5 5 5 5 5 5 5 5 5 5 5 5 5 5 5 5 5 5 5 5 4 4 4 4 4 4 4 4 4 4
6 6 6 6 6 5 5 5 5 5 5 5 5 5 5 5 5 5 5 5 5 5 5 5 5 5 5 4 4 4 4 4 4 4 4 4 4 4 4 4 4 4 4
5 5 5 5 5 5 5 5 5 5 5 5 4 4 4 4 4 4 4 4 4 4 4 4 4 4 4 4 4 4 4 4 4 4 3 3 3 3 3 3 3 3 3
5 5 5 5 5 5 5 5 4 4 4 4 4 4 4 4 4 4 4 4 4 4 4 3 3 4 4 3 3 3 3 3 3 3 3 3 3 3 3 3 3 3 2
5 4 4 4 4 4 4 4 4 4 4 4 4 4 3 3 3 3 3 3 3 3 3 3 3 3 3 3 3 2 2 2 2 3 2 3 2 2 2 2 2 2 2
4 4 4 4 4 4 4 4 4 3 3 3 3 3 3 3 3 3 3 3 3 3 3 3 3 3 3 2 2 2 2 1 1 2 1 2 2 2 2 2 1 1 1
3 3 3 3 3 3 3 3 3 3 3 3 3 3 3 3 2 2 2 2 2 3 2 2 2 2 2 2 1 1 1 1 1 1 1 1 1 1 1 1 1 1 1
3 3 3 3 3 3 3 3 2 2 2 2 2 2 2 2 2 2 2 2 2 2 2 2 2 2 1 1 1 0 0 0 0 1 0 0 0 0 0 1 1 0 0
3 3 2 2 2 2 2 2 2 2 2 2 2 2 2 1 1 1 1 1 1 2 2 1 1 1 1 1 0 0 -0 -0 -1 -1 -0 -1 -1 -1 -1 -1 -0 -0 -1
Wind_Speed
4 4 4 4 5 5 5 4 4 4 4 5 6 6 6 6 6 6 5 5 5 5 5 5 6 7 7 7 7 6 6 5 5 5 5 5 5 4 4 5 5 6 6
5 4 4 3 4 5 5 5 4 4 3 4 5 6 5 6 6 6 6 5 5 5 5 5 5 6 6 6 6 6 6 6 6 6 5 5 5 5 4 5 5 5 6
6 5 4 3 4 5 6 5 5 4 3 4 3 4 5 5 5 5 6 5 4 4 5 4 5 5 5 6 6 6 6 6 6 6 6 6 6 6 6 5 6 6 6
6 5 4 3 4 6 5 4 3 3 3 3 3 2 3 4 4 4 5 5 5 4 4 4 4 5 4 4 5 5 5 6 6 6 6 5 5 5 5 5 6 6 7
6 5 4 4 6 5 3 3 2 3 3 3 3 2 2 2 3 3 4 4 5 5 4 4 4 4 4 4 4 5 5 5 5 5 5 4 4 4 4 5 5 6 6
6 5 3 4 5 4 3 3 3 3 3 3 3 2 1 1 2 2 3 3 5 5 5 5 4 4 4 4 3 4 4 4 4 4 3 3 3 4 4 4 5 5 6
5 5 3 3 4 4 4 4 3 4 3 3 3 2 2 2 1 1 2 2 3 4 5 5 5 4 3 2 3 2 3 3 3 2 2 2 2 3 4 4 5 6 6
4 4 4 3 3 3 4 4 4 3 2 3 3 3 1 1 2 0 1 2 2 3 4 5 5 5 4 3 2 2 1 1 1 1 1 1 2 2 3 4 5 6 6
4 4 4 4 3 4 4 4 4 4 4 2 2 3 3 3 1 1 1 1 2 2 2 3 4 5 5 3 2 1 1 0 1 0 0 1 2 3 4 4 5 5 6
3 4 4 4 3 3 4 4 4 3 4 3 1 1 1 3 3 1 1 1 1 2 3 2 3 5 5 4 3 2 2 2 2 2 2 2 3 4 4 5 5 6 6
2 3 4 4 4 3 4 4 3 3 3 3 2 1 1 1 1 2 2 2 2 2 3 3 3 4 5 4 3 3 3 4 4 4 4 4 4 5 5 5 6 7 7
2 2 3 4 4 4 4 4 4 5 4 4 2 2 2 2 2 2 2 2 3 3 2 2 3 3 4 5 4 4 4 5 5 5 5 6 6 6 6 7 7 7 7
3 4 4 4 4 4 4 4 4 4 5 5 4 3 3 2 2 2 2 2 2 2 2 2 3 4 5 5 5 5 5 5 5 6 7 7 7 7 7 7 8 8 8
4 5 5 4 4 4 4 4 4 3 3 4 4 4 2 2 2 2 3 2 1 2 2 3 2 4 5 6 6 6 5 6 6 6 7 7 7 7 7 8 8 8 8
4 5 5 5 4 4 4 5 4 4 3 3 3 4 3 2 2 2 3 3 4 3 4 4 2 2 3 4 5 5 5 6 7 7 8 8 7 7 7 8 8 8 8
5 5 6 5 5 5 5 4 3 3 4 3 2 3 3 2 2 2 2 2 2 3 4 3 3 2 2 3 4 4 5 6 7 8 8 8 7 7 8 8 8 8 8
6 7 6 6 6 6 5 5 4 4 5 4 3 3 3 3 2 2 2 2 2 2 4 4 2 2 2 2 2 4 5 6 7 9 9 9 8 8 9 9 9 9 9
6 6 6 5 5 5 5 6 6 5 5 5 5 4 4 3 3 2 2 3 3 3 4 4 3 2 3 4 3 3 4 6 6 8 9 9 8 9 9 9 10 10 10
5 6 6 7 6 6 6 6 6 6 6 6 5 5 5 4 4 3 3 3 3 3 3 3 4 2 2 2 2 3 3 4 5 7 8 8 8 9 9 9 10 10 10
6 6 7 7 6 6 6 6 5 5 5 5 5 5 5 6 6 5 4 4 3 3 2 3 3 3 3 2 2 2 3 3 3 5 6 7 8 9 9 10 10 10 10
5 5 5 5 5 5 6 6 5 5 5 5 4 4 5 6 7 6 4 4 4 4 3 3 3 3 3 3 3 2 3 3 4 3 3 4 5 6 7 9 9 10 11
4 4 5 5 5 5 6 8 6 6 5 6 5 4 4 5 6 7 7 8 7 6 6 5 4 5 5 4 3 3 3 2 4 2 2 4 3 4 6 8 10 11 12
4 4 4 4 4 4 5 7 6 5 5 6 5 5 4 4 5 4 5 7 7 9 9 6 6 7 6 5 4 4 4 5 5 3 2 4 3 5 7 9 11 11 11
4 4 4 4 4 4 5 6 6 4 4 5 5 5 5 5 5 4 4 4 5 5 7 6 6 7 6 5 6 5 5 4 4 3 3 4 3 4 5 7 10 11 11
3 3 3 3 3 3 4 4 5 4 4 4 5 5 5 5 7 7 5 5 5 5 5 7 7 8 8 8 6 3 3 3 5 4 3 3 3 3 4 4 8 8 9
2 2 2 2 3 3 3 3 3 3 3 4 3 4 7 7 8 8 6 5 6 5 3 3 3 4 5 6 7 6 5 5 4 4 3 3 2 2 3 3 4 6 8
Wind_Direction
152 149 148 147 146 143 140 131 124 118 113 111 112 114 117 119 120 115 110 116 123 120 111 121 131 135 133 127 119 108 102 99 93 88 81 76 69 61 53 38 35 30 28
150 150 144 145 146 149 149 145 136 127 116 110 110 114 116 120 118 115 111 114 120 117 112 103 115 128 132 127 120 109 101 96 91 85 79 74 67 59 49 38 33 27 22
149 147 144 148 156 153 141 130 118 110 109 102 99 107 113 114 117 117 117 117 121 125 123 110 100 105 120 126 121 112 103 96 90 88 82 74 65 57 46 36 30 23 20
151 145 145 153 152 143 134 133 130 114 108 106 101 100 101 107 109 123 124 126 130 132 134 125 110 98 105 113 121 117 108 101 92 84 77 70 62 53 44 35 28 22 20
150 145 150 149 142 132 132 146 135 137 129 117 112 101 98 111 120 121 117 130 138 142 139 136 124 105 97 105 114 119 113 107 99 90 78 64 51 41 32 26 20 15 10
148 138 139 142 142 137 133 139 143 133 139 136 111 82 63 107 113 129 139 135 138 142 142 137 130 121 98 93 103 116 119 115 110 96 84 64 46 35 25 14 10 6 1
147 138 141 144 144 155 156 149 140 138 141 129 104 71 25 30 111 176 136 130 133 143 141 142 140 134 130 107 95 101 111 120 118 113 89 54 36 25 14 5 360 355 350
148 149 143 157 153 151 149 152 145 147 166 164 145 134 115 359 349 348 183 170 164 137 138 154 149 146 140 129 109 98 90 107 127 142 130 44 8 356 353 349 348 347 347
153 148 151 155 159 159 167 172 163 161 175 200 178 161 162 195 230 324 285 204 193 186 176 159 163 163 159 150 150 147 134 263 250 261 251 302 320 324 327 327 330 331 333
164 152 151 152 164 167 169 180 175 164 165 187 204 188 162 156 164 187 293 279 231 210 208 186 175 176 175 169 177 182 201 230 251 269 280 288 302 309 313 315 318 318 320
187 171 161 157 164 168 171 172 168 167 173 181 188 187 116 78 131 165 217 251 280 259 234 209 187 184 190 186 189 204 215 226 244 263 277 288 297 299 302 306 310 310 311
205 201 179 169 171 169 172 177 175 172 179 175 180 181 180 171 181 170 200 219 235 256 252 230 204 198 196 196 206 216 222 228 242 257 273 286 296 298 300 300 303 304 306
201 211 197 186 181 180 173 167 171 175 180 179 184 195 197 198 177 172 171 209 239 261 252 242 224 210 206 205 215 220 225 233 246 259 271 282 292 299 299 299 297 298 301
199 200 192 189 183 178 174 165 171 175 176 180 190 186 193 204 191 186 177 174 220 267 252 245 247 220 211 213 225 222 231 240 249 260 269 276 284 293 295 296 295 293 295
193 192 186 189 183 176 174 171 174 177 167 176 188 189 195 204 196 191 181 179 177 215 241 238 238 244 224 220 233 225 237 250 256 261 267 272 277 283 288 290 290 291 293
189 192 192 190 189 186 178 175 172 175 167 176 192 190 198 202 193 191 186 190 190 196 230 232 237 247 232 234 240 240 247 255 259 266 269 274 274 279 284 285 286 288 292
186 193 192 191 193 192 183 180 182 178 180 183 194 195 205 192 186 183 185 190 200 194 230 256 248 249 225 232 250 262 266 261 266 265 268 272 274 276 281 283 283 284 288
188 192 187 186 192 194 190 186 187 192 192 194 200 199 207 194 189 185 187 201 210 206 211 245 255 242 236 230 233 246 267 264 267 270 271 271 275 278 280 283 284 285 287
191 194 187 190 195 195 198 199 194 198 201 201 201 203 207 192 204 203 203 208 219 226 211 222 247 250 252 238 242 261 265 275 279 276 272 273 277 283 282 286 286 283 284
192 197 195 196 197 197 200 201 199 202 203 202 204 205 206 204 209 209 213 211 211 219 216 219 241 253 256 245 218 246 274 271 274 284 274 276 282 284 283 288 287 286 284
196 194 191 196 200 200 203 199 199 201 199 203 206 210 214 216 216 218 221 210 202 209 211 221 235 253 250 239 233 234 262 282 277 258 264 279 286 284 285 288 286 287 287
196 190 189 195 202 214 212 204 200 201 200 202 209 216 222 221 224 234 237 228 214 209 209 216 229 237 246 236 225 232 245 276 282 255 234 270 267 267 281 280 280 285 290
189 190 193 196 207 217 211 207 204 201 203 208 209 209 227 237 235 228 243 244 235 228 219 212 223 235 239 228 214 231 232 237 252 258 255 267 264 266 279 281 281 284 288
186 191 196 200 206 222 215 211 207 202 203 211 213 212 220 230 234 231 230 238 239 237 228 221 224 234 236 229 217 222 228 247 264 259 228 255 262 263 280 282 279 281 287
183 186 187 189 201 228 224 214 202 196 208 220 223 222 223 228 238 236 227 234 245 251 244 234 237 243 248 248 235 209 216 240 270 267 218 225 261 280 276 270 276 278 286
186 180 186 195 200 217 226 218 207 196 212 226 230 233 234 236 240 236 222 219 238 247 233 243 246 251 246 244 242 225 215 228 251 263 228 203 250 293 296 269 264 281 289
Height
1526 1527 1529 1530 1531 1533 1534 1535 1536 1538 1539 1540 1541 1542 1543 1544 1545 1546 1546 1547 1547 1548 1548 1549 1549 1549 1549 1549 1549 1549 1549 1549 1548 1548 1548 1548 1547 1547 1546 1546 1545 1545 1544
1524 1526 1527 1529 1530 1531 1533 1534 1535 1536 1537 1538 1539 1540 1542 1542 1543 1544 1545 1546 1546 1547 1547 1548 1548 1548 1548 1549 1549 1548 1548 1548 1548 1548 1547 1547 1547 1546 1546 1545 1545 1544 1543
1522 1524 1525 1527 1529 1530 1531 1533 1534 1535 1536 1537 1538 1539 1540 1541 1542 1543 1543 1544 1545 1545 1546 1546 1547 1547 1547 1548 1548 1548 1548 1547 1547 1547 1547 1546 1546 1545 1545 1544 1544 1543 1542
1520 1522 1523 1525 1527 1528 1529 1531 1532 1533 1534 1535 1536 1537 1538 1539 1540 1541 1542 1542 1543 1544 1544 1545 1545 1546 1546 1547 1547 1547 1546 1546 1546 1546 1546 1545 1545 1544 1544 1543 1543 1542 1541
1518 1519 1521 1523 1525 1526 1527 1529 1530 1531 1532 1533 1535 1536 1537 1537 1538 1539 1540 1540 1541 1542 1543 1543 1544 1544 1545 1545 1545 1545 1545 1545 1545 1545 1545 1544 1544 1543 1543 1542 1541 1540 1540
1516 1517 1519 1520 1522 1523 1525 1527 1528 1529 1530 1531 1533 1534 1535 1535 1536 1537 1537 1538 1539 1540 1541 1541 1542 1542 1543 1543 1544 1544 1544 1544 1543 1543 1543 1543 1542 1542 1541 1540 1540 1539 1538
1513 1515 1516 1518 1519 1521 1522 1524 1525 1527 1528 1529 1531 1532 1533 1533 1534 1534 1535 1536 1536 1537 1538 1539 1539 1540 1541 1541 1542 1542 1542 1542 1542 1541 1541 1541 1540 1540 1539 1539 1538 1537 1536
1510 1512 1513 1515 1516 1518 1519 1521 1523 1524 1525 1527 1528 1529 1530 1532 1531 1532 1533 1534 1534 1535 1536 1536 1537 1538 1538 1539 1539 1540 1540 1540 1540 1540 1539 1539 1538 1538 1537 1536 1536 1535 1534
1507 1508 1510 1512 1513 1515 1516 1518 1520 1521 1522 1524 1525 1526 1527 1527 1528 1530 1530 1531 1532 1533 1533 1534 1534 1535 1536 1536 1537 1537 1537 1538 1538 1537 1537 1537 1536 1535 1535 1534 1533 1532 1532
1503 1505 1507 1509 1510 1512 1513 1515 1516 1518 1519 1520 1521 1523 1524 1524 1525 1526 1528 1528 1529 1530 1530 1531 1532 1533 1533 1534 1534 1534 1535 1535 1535 1535 1535 1534 1534 1533 1532 1531 1530 1529 1528
1500 1502 1503 1505 1507 1508 1510 1511 1513 1514 1516 1517 1517 1519 1520 1521 1522 1523 1523 1525 1526 1526 1527 1528 1529 1530 1530 1531 1531 1531 1532 1532 1532 1532 1532 1531 1531 1530 1529 1528 1527 1526 1525
1497 1498 1500 1501 1503 1504 1506 1508 1509 1511 1512 1514 1515 1516 1516 1517 1518 1519 1520 1521 1522 1523 1524 1524 1525 1526 1527 1527 1528 1528 1528 1529 1529 1529 1528 1528 1527 1526 1526 1525 1524 1523 1522
1493 1494 1496 1497 1499 1501 1502 1504 1506 1507 1508 1510 1511 1512 1513 1514 1516 1517 1517 1517 1518 1519 1520 1521 1521 1522 1523 1524 1524 1524 1525 1525 1525 1525 1524 1524 1523 1523 1522 1521 1520 1519 1518
1489 1491 1493 1494 1495 1497 1499 1500 1502 1503 1505 1506 1507 1509 1510 1511 1512 1514 1514 1515 1515 1515 1515 1516 1517 1518 1519 1519 1520 1520 1520 1521 1521 1521 1520 1520 1519 1518 1518 1517 1516 1515 1514
1486 1488 1489 1491 1492 1494 1495 1496 1497 1499 1501 1502 1503 1505 1506 1507 1508 1510 1511 1512 1513 1511 1511 1512 1513 1514 1514 1514 1515 1516 1516 1516 1516 1516 1516 1516 1515 1514 1513 1512 1511 1511 1509
1482 1484 1485 1487 1488 1490 1491 1492 1494 1495 1497 1498 1500 1501 1502 1503 1504 1505 1506 1508 1508 1509 1508 1508 1509 1509 1510 1510 1511 1511 1511 1512 1512 1512 1511 1511 1510 1510 1509 1508 1507 1506 1505
1478 1480 1482 1483 1484 1486 1487 1488 1490 1492 1493 1494 1496 1496 1498 1499 1500 1501 1502 1503 1504 1504 1504 1504 1505 1505 1505 1506 1506 1506 1507 1507 1507 1507 1506 1506 1505 1505 1504 1503 1502 1501 1500
1474 1476 1477 1479 1480 1482 1483 1485 1486 1488 1489 1490 1492 1493 1494 1495 1495 1496 1497 1498 1499 1500 1500 1499 1499 1500 1501 1501 1501 1501 1502 1502 1502 1501 1501 1500 1500 1499 1499 1498 1497 1496 1495
1470 1472 1473 1474 1476 1478 1480 1481 1482 1484 1485 1486 1488 1489 1490 1490 1491 1492 1493 1494 1494 1495 1495 1495 1494 1495 1496 1496 1496 1496 1496 1496 1496 1496 1496 1495 1494 1494 1493 1492 1491 1490 1489
1466 1467 1469 1471 1472 1474 1476 1477 1478 1480 1481 1482 1483 1485 1485 1486 1487 1487 1488 1488 1490 1490 1490 1490 1490 1490 1491 1491 1491 1491 1490 1490 1490 1490 1490 1490 1489 1488 1487 1486 1485 1484 1483
1462 1463 1465 1467 1468 1470 1471 1473 1474 1475 1477 1478 1479 1480 1481 1482 1483 1483 1483 1484 1484 1485 1485 1485 1485 1486 1486 1486 1486 1486 1485 1484 1484 1485 1484 1484 1483 1482 1481 1480 1479 1478 1477
1458 1460 1461 1463 1464 1466 1467 1469 1470 1471 1473 1473 1474 1475 1476 1477 1478 1478 1478 1479 1480 1480 1480 1480 1480 1480 1481 1481 1481 1481 1481 1480 1479 1479 1478 1477 1477 1476 1475 1475 1473 1472 1471
1455 1456 1458 1459 1460 1462 1463 1464 1466 1467 1468 1469 1470 1470 1471 1472 1473 1472 1473 1473 1474 1474 1476 1476 1475 1475 1476 1476 1476 1476 1475 1475 1474 1473 1472 1470 1471 1470 1469 1468 1467 1466 1465
1452 1453 1454 1455 1457 1458 1459 1460 1461 1462 1463 1464 1465 1465 1466 1466 1467 1467 1467 1467 1468 1469 1470 1470 1471 1470 1470 1471 1471 1471 1470 1469 1468 1468 1467 1465 1464 1463 1463 1462 1461 1460 1458
1448 1450 1451 1452 1453 1453 1454 1455 1456 1457 1458 1459 1460 1460 1461 1461 1461 1462 1462 1462 1462 1463 1464 1464 1465 1465 1465 1465 1465 1465 1464 1464 1462 1462 1462 1460 1457 1456 1455 1455 1455 1454 1452
1445 1446 1447 1448 1449 1449 1450 1451 1452 1453 1453 1454 1455 1455 1456 1456 1456 1457 1457 1456 1456 1457 1458 1459 1459 1459 1459 1459 1459 1459 1459 1458 1456 1455 1455 1455 1453 1451 1448 1447 1447 1447 1446